Showing default

CONTINUUM-1, 55045

Orbit data source: Space-Track

CONTINUUM-1, 55045 is a payload satellite owned by URUGUS S.A. (AU) in SSO that was launched on Tue, 03 Jan 2023 UTC via an FALCON 9 launch vehicle from the Air Force Eastern Test Range (AFETR). Payload-class satellites include a variety of spacecraft equipped with specific instruments for various scientific and technological missions. These include communications satellites like Starlink; space stations such as the ISS; scientific satellites like the Hubble; Earth observation satellites from companies like Planet Labs, Umbra, and HawkEye 360; GPS; miniature CubeSats for education and research; and military/defense satellites.

Loading next visibility...
Identifier
55045, 2023-001AN
Orbit
SSO
Country
Flag of AUAU / AUS
Related business
Manufacturer
URUGUS S.A.
Mission
Operational Commercial Imaging
Bus & Motor
NEWSAT IVG, Unknown motor
Mass
41.5 kg wet, 38.5 kg dry
Launch date (UTC)
2023-01-03 (3 years ago)
Launch vehicle
FALCON 9
Launch site
Air Force Eastern Test Range (AFETR)
Object type
Payload
Rocket body
Debris
Shape & HBR
Box, 1.0 m
Radar Cross Section
0.542 m², Medium (>0.1 m² and < 1m²)

Expand to show TLE details & history
Last TLE update: 5 hours ago

TLE from 5 hours ago
0 CONTINUUM-1
1 55045U 23001AN  26166.14801840  .00010470  00000-0  36029-3 0  9997
2 55045  97.3343 229.2674 0010674  73.9727 286.2689 15.30190145191949
Epoch: 2026-06-15T03:33Z
TLE epoch observation values (Epoch: 2026-06-15T03:33:08.789Z)
Latitude
-0.00001°
Longitude
-87.45779°
Altitude
476.308 km
Speed
7.629 km/s
True Right ascension
15h 17m 04s
True Declination
0° 00' 00"
Sunlit
Object was in full shadow at epoch
Visualization orbit readout
Latitude
Unknown
Longitude
Unknown
Altitude
Unknown
Speed
Unknown
Apparent Right ascension
Unknown
Apparent Declination
Unknown
Sunlit
N/A
Visualization observer readout
Local Sidereal Time
19:28:52
Azimuth
Unknown
Elevation
Unknown
Doppler factor
Unknown
Orbital elements
Apogee altitude
479.506 km
Perigee altitude
464.882 km
Semi-major axis
6,850.331 km
Eccentricity
0.00107
Inclination
97.3343°
RAAN
229.2674°
Arg. of periapsis
73.9727°
True anomaly
286.15144°
Mean anomaly
286.2689°
Eccentric anomaly
286.21017°
Mean motion
3.82803 °/min
Orbital period
94.04 mins
BSTAR
0.00036029
Loading maneuver chart data...
Computing Atmospheric mass density...

Documentation

Showing up to 5 results
|